Zurück zum Katalog

FENGYUN 1C DEB

LostSSO
NORAD 30975·DEBRIS·🇨🇳 China

Gestartet May 10, 1999 von Taiyuan Satellite Launch Center

Loading…

Nächste Überflüge (nächste 24 Stunden)

TLE

VeraltetSource: Space-Track

Epoche: Jun 29, 2023, 05:48 UTC

1 30975U 99025BBR 23180.24225106  .00003622  00000-0  12236-2 0  9994
2 30975  99.0848 352.0045 0202299  23.1794 337.8354 14.26665204842174

Verfolge FENGYUN 1C DEB in Echtzeit mit AllMySat

Download on the App Store